Location: ??????????
(41.2581°N, 22.8006°E)
Time: 04:28:51
(UTC+00:00)

GEOS 3 Rocket - Pass Details

Date: 19 March 2026
Orbit: 767 x 846 km, 115.0° (Epoch: 17 April)

Event Time Altitude Azimuth Distance (km) Brightness Sun altitude
Rises 03:06:08 0° 35° (NE) 3,413 7.7 -17.2°
Reaches altitude 10° 03:08:29 10° 35° (NE) 2,473 6.8 -16.8°
Maximum altitude 03:13:53 88° 306° (NW) 847 3.6 -15.8°
Enters shadow 03:18:32 14° 218° (SW) 2,165 5.4 -15.0°
